Miscellaneous Local Product
Issued by NWS North Platte, NE

Home | Current Version | Previous Version | Text Only | Print | Product List | Glossary On
Versions: 1 2 3 4 5 6 7 8 9 10 11 12 13 14 15 16 17 18 19 20 21 22 23 24 25 26 27 28 29 30 31 32 33 34 35 36 37 38 39 40 41 42 43 44 45 46 47 48 49 50
774
AXUS43 KLBF 100610
MISLBF


WESTERN AND NORTH CENTRAL NEBRASKA HOURLY WEATHER ROUNDUP
NATIONAL WEATHER SERVICE NORTH PLATTE NE
1200 AM CST WED FEB 10 2016

NOTE: "FAIR" INDICATES FEW OR NO CLOUDS BELOW 12,000 FEET WITH NO
SIGNIFICANT WEATHER AND/OR OBSTRUCTIONS TO VISIBILITY.

NOTE: STATIONS NOT REPORTING VARIABLES SUCH AS SKY/WEATHER OR
PRESSURE ARE PROVIDED BY THE NEBRASKA DEPARTMENT OF
ROADS...RAWS...AND APRS NETWORKS...AND ARE NOT UNDER
NATIONAL WEATHER SERVICE QUALITY CONTROL.

...OBSERVATIONS IN AND NEAR THE EASTERN PANHANDLE OF NEBRASKA...

CITY           SKY/WX    TMP DP  RH WIND       PRES   REMARKS
PINE RIDGE     CLEAR     33  27  78 W6        30.07S WCI  28
CHADRON        CLEAR     33  27  78 W9        30.10F WCI  25
ALLIANCE       CLEAR     31  26  82 W12       30.10F WCI  22
SIDNEY         CLEAR     38  26  62 W17       30.16F WCI  28
CRESCENT LAKE    N/A     36  28  73 NW8         N/A  WCI  30
BIG SPRINGS      N/A     32  29  87 W8          N/A  WCI  25
$$

...OBSERVATIONS IN NORTH CENTRAL NEBRASKA...

CITY           SKY/WX    TMP DP  RH WIND       PRES   REMARKS
VALENTINE      MOCLDY    31  27  85 SW10      30.04F WCI  22
THEDFORD       PTCLDY    33  30  91 SW3       30.07F
AINSWORTH      CLOUDY    35  28  76 SW6       30.04F WCI  30
O`NEILL        CLOUDY    29  22  78 S6        30.06F WCI  22
ORD            CLOUDY    27  22  81 CALM      30.09F
BROKEN BOW     CLOUDY    32  26  78 SW5       30.08F WCI  27
VALENTINE NWR    N/A     28  24  86 CALM        N/A
BUTTE            N/A     28  21  75 SE3         N/A
HALSEY           N/A     32  28  86 CALM        N/A
CHAMBERS         N/A     29  21  71 S3          N/A
EWING            N/A     27  20  76 S3          N/A
$$

...OBSERVATIONS IN SOUTHWEST NEBRASKA AND FAR NORTHEAST COLORADO...

CITY           SKY/WX    TMP DP  RH WIND       PRES   REMARKS
WRAY           FAIR      38  28  68 W12       30.17F WCI  30
HOLYOKE        FAIR      41  30  65 W16       30.15S
IMPERIAL       CLEAR     35  27  72 W12       30.13F WCI  27
OGALLALA       CLEAR     32  27  80 W5        30.12S WCI  27
NORTH PLATTE   CLEAR     29  25  85 CALM      30.10F
MCCOOK         CLOUDY    30  26  85 W9        30.13F WCI  22
LEXINGTON      CLOUDY    32  25  76 CALM      30.12F
PAXTON           N/A     32  29  90 W3          N/A
STAPLETON        N/A     30  28  92 CALM        N/A
GOTHENBURG       N/A     32  25  74 CALM        N/A
CALLAWAY         N/A     34  28  79 SW5         N/A  WCI  30
$$

...OBSERVATIONS IN CENTRAL LINCOLN COUNTY AREA...

CITY           SKY/WX    TMP DP  RH WIND       PRES   REMARKS
N.P. AIRPORT   CLEAR     29  25  85 CALM      30.10F
N.P. DOWNTOWN    N/A     31  29  91 CALM        N/A
N.P. SOUTHEAST   N/A     31  28  87 CALM        N/A
N.P. HILLCREST   N/A     32  30  92 W3          N/A
$$

...SOME OBSERVATIONS FROM AROUND THE REGION...

CITY           SKY/WX    TMP DP  RH WIND       PRES   REMARKS
DENVER         CLOUDY    38  19  46 SW13      30.24F WCI  30
LARAMIE        CLOUDY    30  15  53 W6        30.30S WCI  24
CHEYENNE       CLOUDY    38  16  40 W13       30.21F WCI  30
SCOTTSBLUFF    CLEAR     33  26  75 CALM      30.16F
RAPID CITY     CLEAR     30  24  78 NW3       30.00F
BISMARCK       CLOUDY    31  21  66 E12       30.01F WCI  22
PIERRE         CLOUDY    31  24  75 CALM      30.02F
WINNER         CLOUDY    37  25  61 CALM      30.04F
SIOUX FALLS    CLOUDY    20  11  68 SE5       30.12F WCI  13
OMAHA          PTCLDY    20  14  77 SE5       30.21S WCI  13
GRAND ISLAND   CLOUDY    25  18  74 S10       30.14F WCI  15
KANSAS CITY    CLEAR     19  10  68 W8        30.24S WCI   9
WICHITA        PTCLDY    27  11  51 CALM      30.27F
OKLAHOMA CITY  CLEAR     35  19  52 N6        30.30S WCI  30
LIBERAL        CLEAR     30  19  64 W12       30.27F WCI  21
HAYS           CLOUDY    30  16  55 SW12      30.20F WCI  21
GOODLAND       CLEAR     37  26  64 W14       30.18F WCI  28
$$




USA.gov is the U.S. government's official web portal to all federal, state and local government web resources and services.